Retour au catalogue

IABS R/B

ActifGEO
NORAD 26054·ROCKET BODY·🇺🇸 United States

Lancé Jan 21, 2000 depuis Cape Canaveral Space Force Station

Loading…

TLE

FraisSource: Space-Track

Époque: Sep 12, 2026, 21:49 UTC

1 26054U 00001C   26255.90921313 -.00000007  00000-0  00000-0 0  9994
2 26054  14.1254 358.8811 0027870 331.1681  28.6995  1.01181525 26974

Suivez IABS R/B en temps réel avec AllMySat

Download on the App Store